Temperature
13 14 14 14 14 14 13 12 12 13 13 14 13 12 13 14 13 13 13 13 13 13 13 12 12 12 12 11 11 11 11 11 11 11 11 11 10 10 10 10 10 10 10 10
13 14 13 13 14 14 13 13 13 13 13 13 13 13 13 13 13 13 13 13 13 13 12 12 12 12 11 11 11 11 11 11 11 11 10 10 10 10 10 10 9 9 9 9
12 12 13 13 13 13 13 13 13 13 13 12 12 12 12 13 13 13 13 13 13 13 13 12 12 12 11 11 11 10 10 10 10 10 10 10 10 9 9 9 9 9 9 9
10 12 13 13 13 13 13 13 12 12 12 12 12 13 13 14 13 13 13 13 13 13 12 12 12 11 11 11 10 10 10 10 10 10 10 9 9 9 9 9 9 9 8 8
9 11 11 13 13 13 13 13 12 12 12 12 12 12 12 14 14 13 13 13 13 12 12 12 11 11 11 10 10 10 10 10 10 9 9 9 9 9 8 8 8 8 8 8
9 11 11 13 13 13 13 12 12 12 11 11 11 10 11 14 13 13 13 13 12 12 12 11 11 11 10 10 10 10 10 9 9 9 9 9 9 8 8 8 8 8 8 7
9 10 10 12 13 13 13 12 13 13 12 12 11 12 13 13 13 13 13 12 12 12 11 11 11 11 10 10 10 10 9 9 9 9 9 9 8 8 8 8 7 7 7 7
8 9 11 12 12 12 12 13 13 13 13 13 13 12 12 12 12 12 12 12 12 11 11 11 11 10 10 10 10 9 9 9 9 9 8 8 8 8 7 7 7 7 7 7
9 11 12 12 13 14 14 13 14 13 13 13 12 12 12 12 12 12 11 11 11 11 10 10 10 10 10 10 9 9 9 9 9 8 8 8 8 7 7 7 7 7 6 6
8 9 11 12 13 13 13 13 13 13 13 13 12 12 12 11 11 11 11 11 11 10 10 10 10 10 10 9 9 9 9 9 8 8 8 8 7 7 7 7 6 6 6 6
8 9 11 12 13 13 13 13 13 13 12 12 12 12 11 11 11 11 10 10 10 10 10 9 9 9 9 9 9 9 9 8 8 8 8 7 7 7 7 7 7 6 6 6
9 11 10 12 13 13 12 12 12 12 12 12 11 11 11 11 10 10 10 10 9 9 9 9 9 9 9 8 8 8 8 8 8 8 7 7 7 7 7 6 6 6 6 6
12 12 12 12 12 12 12 12 12 11 11 11 11 11 10 10 10 9 9 9 9 9 9 8 8 8 8 8 8 8 8 8 8 7 7 7 7 6 6 6 6 6 6 6
11 11 11 11 11 11 11 11 11 11 10 10 10 10 10 9 9 9 9 9 8 8 8 8 8 8 8 7 7 7 7 7 7 7 7 7 6 6 6 6 6 6 6 6
11 11 11 11 11 10 10 10 10 10 10 10 10 9 9 9 9 8 8 8 8 8 8 8 8 8 7 7 7 7 7 7 7 6 6 6 6 6 6 6 6 6 6 6
10 11 10 10 10 10 9 9 9 9 9 9 9 9 9 8 8 8 8 7 7 7 7 7 7 7 7 7 7 6 6 6 6 6 6 6 6 6 6 6 6 5 5 5
10 9 9 9 9 9 9 9 9 9 9 9 8 8 8 8 7 7 7 7 7 7 7 7 7 7 7 6 6 6 6 6 5 5 5 5 5 5 5 5 5 5 5 5
10 10 10 9 9 9 9 9 9 8 8 8 8 8 8 7 7 7 7 7 7 7 7 6 6 6 6 6 6 6 5 5 5 5 5 5 5 5 5 5 5 5 5 4
9 9 9 9 9 9 9 8 8 8 8 8 8 7 7 7 7 7 6 6 6 6 6 6 6 6 6 5 5 5 5 5 5 5 4 4 4 4 4 4 4 4 4 4
9 9 8 8 8 8 8 8 8 8 7 7 7 7 7 7 7 6 6 6 6 6 6 5 5 5 5 5 5 5 4 4 4 4 4 4 4 4 4 4 4 4 4 4
8 8 8 8 8 8 8 8 7 7 7 7 7 7 7 6 6 6 6 6 6 5 5 5 5 5 5 5 5 4 4 4 4 4 4 4 3 3 3 4 4 3 3 3
8 7 7 7 7 7 7 7 7 7 6 6 6 6 6 6 6 6 5 5 5 5 5 5 5 5 5 5 4 4 4 4 4 4 3 3 3 3 3 3 3 3 3 3
7 7 7 7 7 7 6 6 6 6 6 6 6 6 6 5 5 5 5 5 5 5 4 4 4 4 4 4 4 4 4 3 3 3 3 3 3 3 3 3 3 3 2 2
7 6 6 6 6 6 6 6 6 6 6 6 5 5 5 5 5 5 5 5 4 4 4 4 4 4 4 4 4 3 3 3 3 3 3 2 2 2 2 2 2 2 2 2
6 6 6 6 6 5 5 5 5 5 5 5 5 5 4 4 4 4 4 4 4 4 4 4 4 3 3 3 3 3 3 3 3 3 2 2 2 2 2 2 2 2 2 2
6 5 5 5 5 5 5 5 4 4 4 4 4 4 4 4 4 4 4 4 4 4 4 4 3 3 3 3 3 3 3 3 2 2 2 2 2 2 2 2 2 2 2 2
5 5 5 5 5 5 4 4 4 4 4 4 4 4 3 3 3 3 3 3 3 3 3 3 3 3 3 3 3 2 2 2 2 2 2 2 1 1 1 1 1 1 1 1
Wind_Speed
7 7 5 7 8 7 8 8 8 9 10 12 9 8 6 5 4 4 4 5 5 5 4 3 3 3 3 3 3 3 3 3 4 4 3 3 3 4 3 3 4 4 3 3
4 4 5 8 10 9 9 8 9 9 10 9 6 3 3 4 5 6 6 7 6 5 5 5 5 4 4 4 4 3 4 4 4 3 3 3 4 4 3 3 3 3 3 4
4 5 4 7 8 8 6 6 6 9 9 5 4 5 6 6 6 6 7 6 6 6 6 6 6 5 5 5 4 4 4 5 4 4 4 4 4 3 4 4 3 4 4 4
1 2 6 8 3 5 6 6 6 6 6 5 5 5 4 4 6 6 6 6 6 5 6 5 5 5 4 4 4 4 4 5 4 4 4 4 4 4 4 4 4 4 5 5
3 3 8 8 3 4 5 6 5 6 5 4 2 3 4 4 4 6 6 5 5 5 5 4 5 5 4 4 4 4 5 6 6 5 5 4 5 5 5 4 4 5 5 5
3 3 6 7 3 2 2 5 4 4 4 2 1 2 6 4 3 4 3 3 4 3 3 4 5 4 4 4 5 6 7 7 6 5 5 6 6 5 4 4 5 5 5 5
5 6 8 7 3 3 2 7 4 3 4 4 5 6 5 3 3 3 3 3 2 2 3 4 4 3 3 4 6 7 5 5 5 5 6 6 5 4 3 3 3 4 5 5
5 5 8 3 3 4 7 4 3 3 4 5 6 5 4 3 3 2 2 2 2 2 3 3 3 3 4 6 6 4 4 4 5 5 5 4 4 3 3 3 3 4 4 4
8 8 5 3 5 5 4 4 5 4 5 4 4 5 5 4 3 3 3 3 2 2 3 3 3 4 5 6 4 4 4 4 4 4 4 4 4 4 4 4 4 4 4 4
5 8 7 7 6 5 5 6 6 5 4 4 5 5 5 4 4 3 3 3 2 2 3 4 4 4 5 5 3 3 4 4 4 4 4 3 3 4 4 5 5 5 5 5
7 9 7 7 6 6 6 5 5 4 4 5 5 5 5 5 4 4 3 3 2 3 4 5 4 4 4 3 2 3 4 4 4 4 4 4 4 4 6 6 7 7 7 6
9 8 6 9 7 5 5 6 6 5 5 4 4 5 4 5 4 4 4 3 3 4 4 5 4 5 4 3 3 3 3 4 3 3 3 3 3 4 5 6 8 9 9 7
9 8 8 9 8 6 6 6 6 5 5 5 5 4 4 5 4 3 3 4 5 5 5 5 4 5 5 3 3 4 4 5 3 3 3 3 3 3 4 5 6 6 6 7
8 6 7 8 8 7 6 6 4 4 4 5 4 4 4 4 4 4 5 6 5 5 5 5 5 6 5 3 3 4 4 5 4 4 4 4 4 4 3 3 3 3 4 5
8 7 8 7 6 5 5 4 4 5 5 4 4 4 4 5 5 6 5 4 3 4 5 5 5 7 5 3 3 4 4 3 3 3 3 3 3 3 3 3 3 2 1 1
5 4 4 5 5 5 5 4 5 6 5 5 5 5 5 5 4 4 4 3 4 5 6 5 6 6 4 3 3 3 3 4 3 2 2 2 2 3 3 3 3 3 2 2
4 5 5 5 6 6 6 6 6 6 5 5 5 5 4 3 3 4 4 4 5 6 5 5 6 5 3 2 3 3 2 3 3 2 2 3 3 3 3 3 3 2 2 2
7 8 7 6 6 6 5 5 5 5 5 5 4 3 3 4 5 6 5 4 3 4 5 5 5 3 3 3 3 2 2 2 2 3 3 3 3 3 2 2 2 2 2 1
4 4 4 4 4 4 5 5 5 5 5 3 3 4 5 5 5 5 4 3 4 5 5 4 5 3 3 4 3 2 2 2 2 2 2 3 3 2 2 2 2 2 2 1
3 3 3 4 3 3 4 4 4 4 4 3 3 3 4 5 4 4 3 4 5 5 4 4 3 3 3 3 3 2 2 2 2 2 2 2 2 2 2 2 2 2 2 2
3 3 3 3 3 3 3 3 3 3 3 3 3 4 4 4 3 3 3 4 4 3 4 4 3 3 3 3 3 2 2 3 3 2 2 2 2 2 2 2 2 2 2 2
3 3 3 3 3 4 4 3 2 3 3 3 3 2 2 2 2 2 3 4 4 3 2 3 3 3 3 2 2 2 2 3 2 2 2 2 2 2 2 2 2 2 3 3
3 3 3 3 3 4 4 3 3 2 2 3 2 2 2 2 2 2 3 3 2 3 2 2 3 3 3 1 1 2 2 2 2 2 2 2 2 2 2 2 2 2 2 3
2 2 3 3 2 2 3 4 4 3 2 2 2 2 2 1 2 2 3 3 3 2 2 2 2 2 1 1 1 1 2 2 2 2 1 1 2 2 2 2 2 2 2 3
2 2 2 2 2 2 3 3 2 2 2 2 2 2 1 1 2 2 2 2 2 1 1 2 2 2 0 1 1 1 1 1 1 1 1 1 2 2 2 2 2 2 2 3
2 2 3 3 3 2 2 1 1 1 1 1 2 2 2 1 1 1 1 1 1 1 1 1 1 0 0 0 1 1 1 1 1 1 1 2 2 2 2 2 3 2 2 2
2 2 2 3 3 2 2 1 1 2 2 1 2 2 1 1 1 1 1 1 1 1 0 0 0 0 0 0 0 0 0 0 0 1 1 1 1 2 2 2 2 2 2 2
Wind_Direction
243 255 248 249 248 229 219 215 217 244 249 264 263 251 250 235 221 225 223 215 211 216 223 226 235 242 236 239 244 238 235 245 244 243 244 250 256 253 247 237 236 235 241 250
279 273 263 265 256 240 232 232 237 257 266 265 271 255 249 233 219 223 228 227 223 221 220 222 223 233 239 240 239 230 233 247 250 246 246 247 250 251 250 248 245 242 242 242
267 298 321 272 241 221 224 224 210 236 255 280 294 259 244 233 222 224 233 232 227 226 227 228 223 221 230 237 233 227 234 244 242 237 241 246 248 249 245 243 241 245 246 242
244 358 249 248 241 207 224 246 230 246 265 253 251 261 266 235 217 231 233 227 229 231 235 237 234 229 230 234 225 226 236 246 242 233 239 244 239 240 243 245 239 241 245 243
161 232 273 289 266 196 208 262 238 239 266 280 307 346 309 264 224 228 229 227 228 231 232 231 233 231 224 233 230 232 240 246 241 231 235 240 242 243 242 239 242 243 241 239
158 205 247 253 270 224 132 277 257 217 238 258 90 305 284 276 249 242 239 234 231 227 227 225 235 221 216 234 234 238 242 244 240 231 229 234 240 246 248 241 244 243 245 241
191 227 260 258 270 104 170 254 276 225 226 211 218 239 272 287 265 249 245 245 233 224 233 231 221 198 220 238 244 247 248 247 242 234 233 233 236 241 240 242 246 248 250 252
173 210 255 252 129 185 229 264 259 241 231 227 248 270 283 281 273 268 269 263 236 237 266 259 224 204 225 243 251 254 250 242 243 242 239 235 224 235 231 226 234 248 252 259
197 220 248 226 224 248 246 257 259 246 247 230 252 268 269 267 265 268 258 253 250 234 264 273 246 218 226 247 249 245 248 246 247 248 241 229 221 223 229 226 230 241 242 249
250 262 261 263 264 268 265 263 268 261 251 242 252 259 260 259 260 263 264 260 262 245 259 274 266 251 240 247 239 230 239 247 249 244 244 238 231 224 226 229 233 239 241 243
256 272 290 279 261 268 277 276 276 280 262 243 242 259 255 255 254 253 264 273 262 248 253 266 271 267 258 250 223 233 245 247 247 239 234 237 241 237 236 237 235 235 236 229
242 245 242 267 269 268 268 271 270 275 279 268 246 251 255 253 250 248 256 266 268 267 264 270 273 273 271 257 224 224 246 249 242 234 233 235 243 272 273 263 266 259 252 240
241 252 250 265 275 270 267 270 270 258 254 266 265 252 254 259 254 252 259 257 254 258 263 268 271 274 273 258 234 229 240 247 242 233 232 235 237 244 279 303 299 273 254 244
247 252 267 267 269 275 274 273 274 274 265 253 256 258 254 255 259 252 253 254 258 262 266 268 272 276 274 251 236 241 247 251 244 232 230 232 236 241 247 262 278 286 262 240
258 245 246 261 272 281 283 282 285 281 275 272 261 253 247 245 249 253 258 259 262 267 271 274 276 278 280 248 236 243 246 248 240 234 234 237 243 246 249 258 252 248 257 262
275 273 252 252 261 271 275 268 263 267 269 269 270 265 258 248 250 261 259 243 245 257 265 269 271 275 272 241 239 247 248 260 259 242 239 241 241 251 255 254 245 235 225 223
258 267 264 265 265 266 261 257 255 261 267 265 264 269 269 262 266 267 264 254 247 252 257 259 267 277 270 245 233 243 247 255 266 268 247 243 243 244 251 246 233 231 238 229
239 242 242 239 243 255 265 267 263 264 264 260 263 267 261 252 252 258 262 267 270 277 272 263 265 270 265 249 235 241 241 245 248 255 258 254 254 249 250 234 220 218 235 209
258 256 252 250 250 245 253 262 265 267 266 258 256 258 259 256 253 251 253 248 245 264 276 271 269 265 259 250 240 227 227 243 260 269 263 263 266 263 256 233 228 225 217 188
278 274 267 267 267 262 263 268 269 273 272 264 260 266 268 262 252 244 240 243 243 245 254 260 256 251 250 249 236 226 222 229 243 257 264 260 260 263 259 238 231 230 227 218
280 284 283 282 288 290 278 265 257 270 285 276 248 251 257 259 247 232 230 261 272 256 253 260 256 250 243 240 235 227 222 223 230 235 236 243 254 264 263 240 236 236 229 224
286 281 281 287 297 305 304 296 268 263 280 285 274 256 249 258 259 256 243 247 260 263 262 258 255 247 248 244 215 216 221 221 225 231 232 239 248 257 257 243 235 237 231 223
284 281 285 288 287 294 308 311 290 267 259 261 253 238 235 245 238 234 268 269 263 271 268 257 256 259 265 225 205 208 215 216 219 225 227 233 246 256 261 252 246 238 230 222
290 298 301 304 313 318 313 311 306 294 281 281 264 238 223 240 284 274 258 268 272 273 268 259 262 271 269 199 199 206 217 216 213 215 222 235 247 256 259 253 252 245 236 229
308 308 309 317 314 297 294 306 322 330 341 336 328 314 289 242 240 268 277 269 263 283 294 283 275 282 287 204 202 218 235 235 221 205 219 235 245 253 254 247 248 246 242 238
303 301 294 285 278 280 288 288 288 293 307 323 321 318 318 323 305 290 287 290 286 288 291 292 292 300 274 222 220 228 235 260 287 267 242 248 252 257 259 255 253 248 245 243
304 306 313 320 316 305 291 269 250 264 265 252 279 299 306 321 331 341 344 334 320 311 300 301 290 290 272 246 242 258 253 262 263 265 264 262 263 262 255 259 257 252 250 243
Height
1520 1517 1517 1517 1515 1516 1519 1520 1523 1515 1512 1502 1498 1497 1495 1495 1495 1496 1497 1497 1498 1499 1499 1500 1500 1501 1501 1501 1501 1502 1501 1501 1501 1501 1501 1501 1501 1501 1500 1500 1500 1500 1499 1499
1518 1515 1515 1515 1511 1510 1510 1511 1511 1508 1505 1496 1494 1493 1493 1492 1492 1493 1493 1494 1495 1496 1496 1496 1497 1497 1497 1498 1498 1498 1498 1498 1497 1497 1497 1497 1497 1497 1496 1496 1496 1496 1495 1495
1525 1518 1515 1516 1506 1505 1505 1503 1503 1505 1499 1493 1492 1491 1489 1489 1489 1489 1490 1491 1492 1492 1492 1493 1493 1494 1494 1494 1494 1494 1494 1494 1494 1493 1493 1493 1493 1492 1492 1491 1491 1491 1491 1490
1526 1522 1522 1507 1497 1497 1499 1497 1496 1494 1492 1490 1489 1488 1487 1486 1486 1487 1487 1488 1488 1488 1489 1489 1490 1490 1490 1490 1490 1490 1490 1489 1489 1489 1488 1488 1488 1487 1487 1487 1487 1486 1486 1486
1529 1526 1517 1503 1495 1495 1497 1496 1490 1490 1489 1488 1487 1486 1485 1484 1484 1484 1485 1485 1485 1485 1486 1486 1486 1486 1486 1486 1486 1486 1485 1485 1485 1484 1484 1483 1483 1483 1482 1482 1482 1482 1481 1481
1527 1523 1519 1501 1491 1490 1493 1496 1487 1486 1486 1486 1486 1489 1484 1481 1481 1481 1482 1482 1482 1482 1482 1482 1482 1482 1482 1482 1481 1481 1481 1481 1480 1480 1479 1479 1479 1478 1477 1477 1477 1477 1476 1477
1523 1521 1509 1494 1490 1490 1501 1495 1484 1483 1483 1484 1484 1483 1481 1479 1478 1478 1479 1479 1479 1478 1478 1478 1478 1478 1477 1477 1477 1477 1477 1476 1476 1476 1475 1475 1474 1474 1473 1473 1472 1472 1471 1471
1518 1518 1508 1489 1489 1491 1489 1483 1482 1481 1481 1480 1479 1478 1478 1477 1476 1475 1475 1475 1475 1475 1474 1474 1474 1474 1473 1473 1472 1472 1472 1472 1471 1471 1471 1470 1469 1469 1469 1468 1467 1466 1466 1465
1503 1498 1488 1485 1485 1483 1482 1481 1480 1479 1478 1478 1476 1475 1474 1474 1473 1473 1472 1472 1471 1471 1470 1470 1470 1470 1469 1468 1469 1468 1468 1467 1467 1466 1465 1465 1465 1464 1464 1463 1462 1461 1461 1460
1495 1487 1484 1482 1481 1480 1480 1478 1477 1476 1475 1475 1473 1472 1471 1471 1470 1469 1469 1469 1468 1467 1466 1466 1465 1465 1465 1464 1464 1464 1463 1462 1462 1461 1460 1460 1460 1460 1459 1458 1457 1456 1455 1455
1490 1484 1480 1477 1477 1476 1475 1474 1473 1473 1472 1471 1470 1469 1468 1467 1466 1466 1466 1465 1465 1464 1463 1462 1461 1460 1460 1460 1460 1459 1458 1458 1457 1457 1456 1455 1455 1454 1453 1453 1452 1451 1450 1450
1484 1478 1478 1474 1473 1473 1472 1470 1470 1469 1467 1467 1466 1465 1464 1463 1462 1462 1462 1461 1461 1460 1459 1458 1457 1456 1456 1456 1456 1454 1454 1453 1453 1452 1451 1450 1450 1449 1448 1447 1446 1445 1445 1445
1474 1473 1472 1470 1469 1469 1468 1466 1465 1464 1464 1463 1462 1462 1460 1459 1459 1458 1458 1457 1456 1455 1454 1454 1452 1452 1452 1452 1451 1450 1449 1449 1448 1447 1447 1446 1445 1444 1442 1441 1440 1439 1439 1440
1470 1469 1467 1465 1465 1464 1463 1462 1461 1460 1459 1459 1458 1457 1456 1455 1454 1454 1453 1453 1452 1451 1450 1449 1448 1447 1447 1447 1446 1445 1445 1445 1444 1443 1442 1441 1440 1439 1438 1436 1435 1434 1435 1435
1464 1463 1462 1461 1460 1459 1458 1457 1456 1455 1454 1454 1453 1453 1452 1450 1449 1449 1449 1449 1448 1446 1445 1445 1443 1443 1443 1442 1441 1441 1440 1440 1439 1439 1438 1437 1435 1434 1434 1433 1432 1431 1431 1432
1459 1457 1457 1456 1455 1454 1454 1452 1451 1450 1450 1449 1448 1448 1447 1446 1445 1444 1444 1443 1442 1441 1440 1440 1439 1439 1438 1438 1437 1436 1436 1435 1435 1434 1433 1432 1431 1430 1429 1429 1428 1428 1428 1428
1454 1452 1451 1451 1450 1449 1449 1448 1447 1446 1445 1444 1444 1443 1442 1441 1440 1439 1438 1438 1437 1436 1436 1436 1435 1435 1434 1433 1433 1432 1431 1431 1430 1429 1429 1428 1427 1427 1425 1425 1425 1425 1425 1425
1450 1449 1448 1447 1445 1445 1444 1444 1443 1442 1441 1440 1439 1438 1437 1436 1435 1434 1433 1433 1432 1431 1431 1431 1431 1430 1429 1429 1428 1428 1427 1426 1426 1425 1424 1424 1423 1422 1422 1421 1421 1422 1422 1423
1445 1444 1443 1443 1442 1441 1440 1439 1438 1438 1437 1436 1435 1434 1433 1432 1431 1430 1429 1428 1427 1426 1426 1427 1426 1426 1425 1424 1424 1423 1423 1423 1422 1421 1421 1420 1419 1418 1418 1417 1418 1419 1419 1419
1440 1440 1439 1438 1437 1436 1435 1434 1433 1433 1432 1431 1430 1429 1428 1427 1427 1426 1425 1424 1423 1423 1423 1423 1422 1421 1421 1421 1420 1420 1419 1419 1418 1418 1417 1416 1415 1415 1415 1415 1415 1416 1416 1416
1436 1436 1435 1434 1433 1432 1431 1430 1429 1428 1427 1427 1426 1425 1424 1423 1423 1422 1420 1419 1419 1420 1419 1419 1418 1418 1417 1417 1417 1416 1416 1415 1415 1414 1414 1413 1413 1412 1411 1412 1412 1413 1413 1413
1434 1432 1431 1430 1429 1428 1428 1427 1425 1424 1423 1423 1422 1421 1420 1419 1418 1418 1417 1417 1416 1416 1416 1415 1415 1415 1414 1414 1413 1413 1413 1412 1412 1411 1411 1410 1410 1409 1409 1409 1409 1410 1410 1410
1431 1430 1429 1428 1427 1426 1424 1423 1422 1421 1420 1419 1418 1418 1417 1416 1415 1414 1413 1413 1413 1413 1412 1412 1412 1412 1411 1410 1410 1410 1410 1409 1408 1408 1408 1408 1407 1407 1406 1406 1407 1407 1407 1407
1428 1427 1427 1425 1424 1423 1421 1420 1419 1418 1417 1416 1415 1415 1414 1413 1412 1412 1411 1410 1410 1410 1409 1409 1409 1408 1408 1407 1407 1407 1407 1406 1406 1405 1405 1405 1405 1404 1404 1404 1404 1404 1404 1404
1425 1424 1424 1422 1421 1419 1418 1417 1416 1415 1414 1413 1412 1412 1412 1411 1410 1409 1408 1408 1407 1407 1406 1406 1406 1405 1405 1404 1404 1403 1403 1403 1403 1403 1402 1402 1402 1401 1401 1401 1401 1401 1401 1401
1423 1422 1421 1420 1419 1417 1416 1415 1414 1413 1412 1410 1410 1409 1409 1408 1408 1407 1406 1405 1405 1404 1404 1403 1403 1403 1402 1402 1401 1401 1401 1401 1400 1400 1400 1400 1399 1398 1398 1398 1398 1398 1398 1398
1420 1419 1418 1417 1416 1415 1413 1412 1411 1410 1410 1408 1407 1407 1407 1406 1405 1405 1404 1403 1403 1402 1402 1402 1401 1401 1401 1400 1400 1400 1399 1399 1398 1398 1397 1397 1396 1396 1395 1395 1395 1395 1395 1395